Home   Weather   Culpeper   Past weeks
Flag for USA

Past Weather in Culpeper, Virginia, USA — Yesterday and Last 2 Weeks

Now
94 °F

Sunny.


Feels Like: 100 °F
Forecast: 90 / 69 °F
Wind: 6 mph from Southwest

Location: Culpeper County Airport

Current Time: Jul 16, 2019 at 4:55:27 pm

Latest Report: Jul 16, 2019 at 3:55 pm


Visibility: 10 mi

Pressure: 30.04 "Hg

Humidity: 45%

Dew Point: 70 °F

Location of CulpeperLocation

Past Weather in Culpeper — Graph

°F

Culpeper Temperature Yesterday

Maximum temperature yesterday: 92 °F (at 4:55 pm)
Minimum temperature yesterday: 65 °F (at 6:15 am)
Average temperature yesterday: 80 °F

High & Low Weather Summary for the Past Weeks

 TemperatureHumidityPressure
High94 °F (Jul 16, 3:15 pm)96% (Jul 2, 1:55 am)30.15 "Hg (Jul 2, 1:55 am)
Low60 °F (Jul 2, 5:55 am)34% (Jul 1, 5:15 pm)29.81 "Hg (Jul 11, 3:55 pm)
Average79 °F75%29.99 "Hg
* Reported Jul 1 3:15 pm — Jul 16 3:15 pm, Culpeper. Weather by CustomWeather, © 2019

Note: Actual official high and low records may vary slightly from our data, if they occured in-between our weather recording intervals... More about our weather records

Advertising

Culpeper Weather History for the Previous 24 Hours

Scroll right to see more
 ConditionsComfort  
Time TempWeatherWind HumidityBarometerVisibility
3:15 pm
Tue, Jul 16
94 °FSunny.3 mph43%30.05 "Hg10 mi
2:55 pm93 °FSunny.6 mph43%30.05 "Hg10 mi
2:15 pm94 °FScattered clouds.3 mph44%30.07 "Hg10 mi
1:55 pm93 °FSunny.6 mph45%30.07 "Hg10 mi
1:35 pm92 °FScattered clouds.5 mph47%30.08 "Hg10 mi
1:15 pm92 °FSunny.3 mph47%30.09 "Hg10 mi
12:55 pm91 °FSunny.No wind53%30.09 "Hg10 mi
12:35 pm90 °FSunny.3 mph55%30.10 "Hg10 mi
12:15 pm89 °FSunny.3 mph56%30.11 "Hg10 mi
11:55 am89 °FSunny.3 mph58%30.11 "Hg10 mi
11:15 am86 °FSunny.3 mph63%30.11 "Hg10 mi
10:55 am86 °FSunny.No wind62%30.11 "Hg10 mi
10:15 am85 °FSunny.No wind63%30.12 "Hg10 mi
9:55 am85 °FSunny.No wind63%30.11 "Hg10 mi
9:15 am83 °FSunny.No wind65%30.12 "Hg10 mi
8:55 am81 °FSunny.No wind69%30.13 "Hg10 mi
8:15 am77 °FSunny.No wind81%30.12 "Hg10 mi
7:55 am76 °FSunny.3 mph86%30.12 "Hg10 mi
7:35 am75 °FSunny.No wind88%30.11 "Hg10 mi
7:15 am74 °FSunny.No wind95%30.11 "Hg10 mi
6:55 am72 °FFog.No wind95%30.10 "Hg5 mi
6:35 am71 °FFog.No wind95%30.10 "Hg4 mi
6:15 am71 °FFog.No wind95%30.10 "Hg3 mi
5:55 am71 °FClear.No wind95%30.10 "Hg7 mi
5:35 am72 °FClear.No wind95%30.09 "Hg7 mi
5:15 am72 °FClear.No wind95%30.09 "Hg7 mi
4:55 am72 °FFog.No wind94%30.08 "Hg5 mi
4:15 am71 °FFog.No wind95%30.08 "Hg5 mi
3:55 am71 °FFog.No wind95%30.08 "Hg4 mi
3:15 am71 °FFog.No wind95%30.07 "Hg5 mi
2:55 am72 °FClear.No wind95%30.08 "Hg7 mi
2:15 am72 °FClear.No wind95%30.08 "Hg7 mi
1:55 am72 °FClear.No wind95%30.08 "Hg7 mi
1:35 am72 °FClear.No wind95%30.08 "Hg7 mi
1:15 am73 °FClear.No wind95%30.08 "Hg10 mi
12:55 am72 °FClear.No wind94%30.08 "Hg10 mi
12:35 am73 °FClear.No wind95%30.08 "Hg10 mi
12:15 am73 °FClear.No wind95%30.08 "Hg10 mi
11:55 pm
Mon, Jul 15
74 °FClear.No wind94%30.08 "Hg10 mi
11:35 pm74 °FClear.No wind93%30.08 "Hg10 mi
11:15 pm76 °FClear.No wind87%30.08 "Hg10 mi
10:55 pm77 °FClear.No wind82%30.08 "Hg10 mi
10:15 pm79 °FClear.No wind74%30.08 "Hg10 mi
9:55 pm80 °FClear.No wind71%30.07 "Hg10 mi
9:15 pm82 °FClear.No wind72%30.06 "Hg10 mi
8:55 pm81 °FClear.No wind74%30.06 "Hg10 mi
8:15 pm85 °FScattered clouds.No wind62%30.06 "Hg10 mi
7:55 pm85 °FSunny.3 mph60%30.05 "Hg10 mi
7:35 pm86 °FSunny.3 mph58%30.05 "Hg10 mi
7:15 pm88 °FSunny.8 mph56%30.04 "Hg10 mi
6:55 pm88 °FScattered clouds.7 mph55%30.04 "Hg10 mi
6:15 pm90 °FSunny.6 mph48%30.04 "Hg10 mi
5:55 pm91 °FSunny.6 mph46%30.04 "Hg10 mi
5:15 pm91 °FSunny.No wind44%30.04 "Hg10 mi
4:55 pm92 °FScattered clouds.6 mph42%30.05 "Hg10 mi
4:15 pm92 °FSunny.5 mph40%30.06 "Hg10 mi
Weather by CustomWeather, © 2019

See weather overview

LIVE PARTIAL LUNAR ECLIPSE – Watch the eclipse as it happens